Location: The Saddle
(36.8333°N, 80.3417°W)
Time: 05:50:23
(UTC-04:00)

Courier 1B - Pass Details

Date: 25 September 2024
Orbit: 962 x 1208 km, 28.3° (Epoch: 05 October)

Event Time Altitude Azimuth Distance (km) Brightness Sun altitude
Rises 14:55:46 0° 263° (W) 3,706 11.0 45.0°
Reaches altitude 10° 14:58:38 10° 254° (WSW) 2,786 10.6 44.7°
Maximum altitude 15:04:36 33° 193° (SSW) 1,676 10.3 43.9°
Drops below altitude 10° 15:10:53 10° 132° (SE) 2,940 10.1 43.1°
Sets 15:14:00 0° 123° (ESE) 3,938 10.6 42.6°
